[[{"header":{"parameterUnit":"m.s-1","parameterCategory":1,"la1":30.2991,"la2":30.254,"lo1":-89.0895,"lo2":-89.0444,"dy":0.0017,"dx":0.0017,"nx":28,"ny":28,"refTime":"2025-01-16T09:00:00:Z","depth":0,"parameterNumber":2,"parameterNumberName":"U-component_of_WINDS"},"data":[0,0,0,0,0,0,0,0,0,0,0,0,0,0,0,0,0,0,0,0,0,0,0,0,0,0,0,0,0,0,0,0,0,0,0,0,0,0,0,0,0,0,0,0,0,0,0,0,0,0,0,0,0,0,0,0,0,0,1.513,1.513,0,1.5183,1.5184,1.5185,1.5164,1.5163,1.5162,1.5161,1.5218,1.5221,1.5224,0,0,0,0,0,0,0,0,0,0,0,0,0,1.5012,1.5014,1.513,1.513,1.5131,1.5183,1.5184,1.5185,1.5165,1.5163,1.5162,1.516,1.5218,1.5221,1.5224,0,0,0,0,0,0,0,0,0,0,0,0,0,1.5064,1.5015,1.513,1.5127,1.5127,1.5183,1.5184,1.5185,1.5165,1.5163,1.5161,1.5159,1.5217,1.522,1.5224,1.5287,0,0,1.5237,1.5239,0,0,0,0,0,0,0,0,1.5061,1.5069,1.5127,1.5127,1.5128,1.5165,1.5164,1.5219,1.5165,1.5151,1.5161,1.5159,1.5202,1.5208,1.5222,1.5289,1.5292,1.5237,1.524,1.5241,1.5242,0,0,0,0,0,0,0,1.5058,1.5066,1.5151,1.5128,1.5128,1.5124,1.513,1.5174,1.5186,1.5152,1.5151,1.5157,1.5202,1.5218,1.5223,1.5293,1.5237,1.5241,1.5243,1.5245,1.5415,1.5417,0,0,0,0,0,0,1.5054,1.5063,1.5149,1.5153,1.5089,1.5128,1.5134,1.5155,1.5186,1.5189,1.5159,1.5156,1.5212,1.5218,1.5225,1.5301,1.5241,1.5245,1.5247,1.5413,1.5416,1.5418,0,0,0,0,0,0,1.5051,1.5061,1.5147,1.5108,1.5118,1.5132,1.5156,1.5157,1.5173,1.5191,1.5193,1.5172,1.5211,1.5219,1.5271,1.5302,1.5247,1.5251,1.541,1.5414,1.5417,1.5452,0,0,0,0,0,0,1.5048,1.5061,1.5084,1.5108,1.512,1.5192,1.5158,1.516,1.5179,1.5176,1.5204,1.5207,1.521,1.5266,1.5276,1.5307,1.5254,1.5408,1.5412,1.5416,1.5448,1.5456,1.5462,0,0,0,0,0,1.5044,1.5092,1.5085,1.5096,1.5149,1.5194,1.5201,1.5202,1.5182,1.5206,1.5218,1.5206,1.5297,1.5271,1.5282,1.5315,1.5406,1.5411,1.5415,1.5445,1.5454,1.5462,0,0,0,0,0,0,1.5072,1.5095,1.5088,1.5145,1.5168,1.519,1.522,1.5212,1.5242,1.5238,1.5239,1.5246,1.53,1.5313,1.5283,1.5377,1.5349,1.5356,1.5367,1.5376,1.5383,1.538,1.5257,0,0,0,0,0,1.5084,1.5117,1.5136,1.5185,1.5197,1.5207,1.5226,1.5225,1.5249,1.5259,1.5274,1.5298,1.5333,1.5355,1.5387,1.545,1.5456,1.5478,1.5485,1.5491,1.5497,1.5532,1.5542,1.5433,1.5433,1.5433,0,0,1.5111,1.5128,1.5149,1.5191,1.5209,1.5244,1.5215,1.5253,1.528,1.5265,1.5315,1.5327,1.5355,1.5412,1.5439,1.5425,1.5529,1.5497,1.5501,1.5505,1.5538,1.5548,1.5558,1.5437,1.5436,1.5435,0,0,1.5178,1.5194,1.5236,1.5254,1.5281,1.5287,1.5297,1.5321,1.5329,1.5379,1.5369,1.5401,1.5459,1.5479,1.5497,1.5572,1.5563,1.5582,1.5621,1.5655,1.5663,1.5671,1.5699,1.5708,1.5589,1.5589,1.5589,0,1.5208,1.526,1.526,1.5299,1.5319,1.5306,1.535,1.5367,1.5403,1.5417,1.5401,1.5474,1.5492,1.5555,1.5573,1.5587,1.56,1.558,1.5662,1.567,1.5677,1.5703,1.5714,1.5591,1.5591,1.559,1.559,0,1.5297,1.5333,1.5365,1.5399,1.5422,1.5463,1.547,1.5494,1.5491,1.5499,1.5551,1.5571,1.5608,1.5623,1.5621,1.5686,1.5676,1.5661,1.5632,1.5689,1.5714,1.5724,1.5594,1.5593,1.5593,1.5592,0,0,1.5384,1.5417,1.5428,1.5444,1.5472,1.5501,1.5542,1.5577,1.5598,1.5623,1.5659,1.5708,1.5694,1.5715,1.5715,1.5745,1.5804,1.5726,1.5726,1.574,1.5878,1.589,1.5902,1.5798,1.58,1.5801,1.5876,0,1.5454,1.5525,1.5526,1.5593,1.5627,1.5615,1.5651,1.5673,1.5682,1.5713,1.5723,1.5759,1.5737,1.5749,1.5778,1.5791,1.5832,1.5785,1.5832,1.5834,1.5827,1.5915,1.5927,1.5997,1.5886,1.5887,1.5889,0,1.5545,1.5573,1.5642,1.5666,1.568,1.5713,1.5745,1.5774,1.5799,1.5804,1.5827,1.5822,1.5866,1.5835,1.5895,1.5864,1.5883,1.5892,1.5895,1.59,1.5865,1.5923,1.6019,1.603,1.5904,1.5903,1.5901,0,1.5603,1.5657,1.5706,1.572,1.5748,1.5771,1.5785,1.5807,1.5829,1.5857,1.5871,1.5905,1.5924,1.595,1.5955,1.5932,1.6017,1.5986,1.6023,1.6023,1.6042,1.6041,1.6143,1.6052,1.6052,1.6052,1.6052,0,1.5681,1.5725,1.5732,1.5762,1.5811,1.5812,1.586,1.5872,1.5892,1.5925,1.5917,1.5949,1.5953,1.5986,1.5991,1.6041,1.6049,1.6055,1.6056,1.6056,1.6055,1.6069,1.6065,1.6055,1.6054,1.6054,1.6053,0,1.5754,1.5761,1.5814,1.5836,1.5843,1.5878,1.5897,1.5927,1.5935,1.5977,1.5987,1.6,1.6038,1.6045,1.6091,1.6094,1.6154,1.6149,1.6145,1.6145,1.6182,1.6179,1.6298,1.6314,1.6212,1.6213,1.6214,0,1.5805,1.5838,1.5863,1.5885,1.5899,1.5933,1.5954,1.5956,1.5979,1.601,1.6036,1.6073,1.6103,1.6165,1.6179,1.6214,1.6211,1.6251,1.6217,1.6216,1.6213,1.6212,1.6216,1.6258,1.6259,1.626,1.626,0,1.5894,1.5895,1.5926,1.5958,1.5984,1.6009,1.6034,1.6052,1.6057,1.6083,1.6122,1.6145,1.6191,1.6229,1.6264,1.6278,1.6271,1.6271,1.6281,1.6283,1.6279,1.6283,1.6164,1.6268,1.6267,1.6267,1.6266,1.6266,1.5958,1.5987,1.601,1.6044,1.6063,1.6085,1.6114,1.6126,1.6158,1.6195,1.6194,1.6237,1.6262,1.6308,1.6324,1.6358,1.6346,1.6361,1.6365,1.6369,1.6373,1.6273,1.6365,1.6364,1.6364,1.6364,1.6364,0,1.6047,1.6061,1.6093,1.6127,1.6155,1.6144,1.617,1.6194,1.6231,1.6255,1.6284,1.6329,1.6365,1.6382,1.6418,1.6442,1.644,1.6452,1.6451,1.6454,1.6381,1.6369,1.6453,1.6453,1.6453,1.6453,1.6453,1.6453,1.6097,1.6146,1.615,1.6209,1.6223,1.6263,1.628,1.6301,1.632,1.637,1.64,1.641,1.6431,1.6468,1.6502,1.6506,1.652,1.6534,1.6537,1.6468,1.6459,1.6451,1.6439,1.6537,1.6537,1.6607,1.6607,1.6608]},{"header":{"parameterUnit":"m.s-1","parameterCategory":1,"la1":30.2991,"la2":30.254,"lo1":-89.0895,"lo2":-89.0444,"dy":0.0017,"dx":0.0017,"nx":28,"ny":28,"refTime":"2025-01-16T09:00:00:Z","depth":0,"parameterNumber":3,"parameterNumberName":"V-component_of_WINDS"},"data":[0,0,0,0,0,0,0,0,0,0,0,0,0,0,0,0,0,0,0,0,0,0,0,0,0,0,0,0,0,0,0,0,0,0,0,0,0,0,0,0,0,0,0,0,0,0,0,0,0,0,0,0,0,0,0,0,0,0,-0.5256,-0.5256,0,-0.5258,-0.5258,-0.5258,-0.5288,-0.5288,-0.5289,-0.529,-0.5291,-0.529,-0.529,0,0,0,0,0,0,0,0,0,0,0,0,0,-0.5278,-0.5277,-0.5256,-0.5256,-0.5256,-0.5258,-0.5258,-0.5258,-0.5287,-0.5288,-0.5289,-0.529,-0.5291,-0.529,-0.529,0,0,0,0,0,0,0,0,0,0,0,0,0,-0.5273,-0.5277,-0.5256,-0.5271,-0.5272,-0.5258,-0.5258,-0.5258,-0.5287,-0.5288,-0.529,-0.5291,-0.5292,-0.5291,-0.529,-0.526,0,0,-0.5286,-0.5286,0,0,0,0,0,0,0,0,-0.5273,-0.5272,-0.5269,-0.527,-0.5271,-0.5274,-0.5266,-0.5258,-0.5287,-0.5282,-0.529,-0.5291,-0.5284,-0.5284,-0.5282,-0.526,-0.526,-0.5286,-0.5286,-0.5285,-0.5285,0,0,0,0,0,0,0,-0.5273,-0.5272,-0.5256,-0.5269,-0.527,-0.5278,-0.5278,-0.5265,-0.5276,-0.5282,-0.5284,-0.5284,-0.5285,-0.5283,-0.5282,-0.526,-0.5286,-0.5285,-0.5285,-0.5284,-0.5215,-0.5214,0,0,0,0,0,0,-0.5272,-0.5272,-0.5256,-0.5256,-0.5275,-0.5276,-0.5277,-0.5272,-0.5277,-0.5279,-0.5283,-0.5286,-0.5284,-0.5283,-0.5282,-0.5248,-0.5285,-0.5284,-0.5284,-0.5216,-0.5215,-0.5213,0,0,0,0,0,0,-0.5272,-0.527,-0.5256,-0.5265,-0.5264,-0.5275,-0.5269,-0.5271,-0.5269,-0.5277,-0.528,-0.5278,-0.5285,-0.5284,-0.5265,-0.5248,-0.5284,-0.5283,-0.5217,-0.5216,-0.5214,-0.5179,0,0,0,0,0,0,-0.5273,-0.527,-0.5259,-0.5264,-0.5263,-0.5239,-0.5268,-0.527,-0.5267,-0.527,-0.5273,-0.5275,-0.5285,-0.5267,-0.5264,-0.5248,-0.5282,-0.5219,-0.5217,-0.5214,-0.5182,-0.5176,-0.5172,0,0,0,0,0,-0.5273,-0.5249,-0.5258,-0.5256,-0.525,-0.5238,-0.5238,-0.525,-0.5265,-0.5254,-0.526,-0.5275,-0.5251,-0.5265,-0.5262,-0.5245,-0.522,-0.5217,-0.5215,-0.5184,-0.5177,-0.5172,0,0,0,0,0,0,-0.524,-0.525,-0.526,-0.5237,-0.5237,-0.5244,-0.523,-0.5243,-0.5238,-0.5241,-0.5257,-0.5257,-0.5237,-0.5239,-0.5255,-0.5217,-0.5238,-0.5235,-0.5216,-0.5209,-0.5204,-0.5204,-0.5281,0,0,0,0,0,-0.5231,-0.5221,-0.523,-0.5208,-0.5208,-0.5219,-0.5214,-0.5224,-0.5225,-0.5224,-0.5229,-0.5229,-0.5221,-0.5215,-0.5209,-0.5183,-0.5184,-0.517,-0.5164,-0.516,-0.5157,-0.5143,-0.5137,-0.5204,-0.5204,-0.5204,0,0,-0.521,-0.5214,-0.5207,-0.5202,-0.5203,-0.5192,-0.5218,-0.5206,-0.5199,-0.5223,-0.5206,-0.5209,-0.521,-0.5187,-0.5178,-0.5189,-0.5139,-0.5157,-0.5153,-0.5152,-0.514,-0.5133,-0.5128,-0.5202,-0.5203,-0.5203,0,0,-0.5167,-0.5169,-0.5151,-0.5152,-0.5153,-0.5161,-0.5157,-0.5162,-0.5165,-0.5149,-0.5166,-0.5158,-0.5144,-0.5144,-0.5142,-0.5099,-0.5113,-0.5097,-0.507,-0.5056,-0.5051,-0.5046,-0.5031,-0.5025,-0.5094,-0.5094,-0.5094,0,-0.5141,-0.5126,-0.5141,-0.5127,-0.5125,-0.5146,-0.5129,-0.5129,-0.5128,-0.5125,-0.5138,-0.5121,-0.5123,-0.5101,-0.5091,-0.5089,-0.5084,-0.5096,-0.5051,-0.5046,-0.5042,-0.5028,-0.5022,-0.5092,-0.5092,-0.5092,-0.5092,0,-0.5094,-0.5083,-0.5069,-0.5068,-0.5064,-0.5048,-0.506,-0.5054,-0.5065,-0.5071,-0.5054,-0.5057,-0.5052,-0.5047,-0.5057,-0.5027,-0.5033,-0.5048,-0.507,-0.5033,-0.502,-0.5015,-0.5089,-0.5089,-0.509,-0.5091,0,0,-0.5029,-0.5037,-0.5032,-0.5031,-0.5035,-0.5027,-0.5013,-0.5008,-0.5002,-0.5001,-0.4989,-0.4977,-0.4991,-0.4989,-0.4999,-0.4987,-0.4953,-0.5003,-0.5004,-0.4993,-0.4919,-0.4908,-0.4901,-0.4962,-0.4962,-0.4961,-0.4919,0,-0.4987,-0.4964,-0.4977,-0.4951,-0.4941,-0.4962,-0.495,-0.495,-0.4956,-0.4949,-0.4955,-0.4947,-0.4965,-0.4964,-0.4954,-0.4959,-0.4938,-0.4963,-0.4951,-0.4951,-0.495,-0.4895,-0.4882,-0.4843,-0.4914,-0.4913,-0.4913,0,-0.4935,-0.4932,-0.4905,-0.4911,-0.4908,-0.4896,-0.4893,-0.4886,-0.4887,-0.4892,-0.489,-0.4903,-0.4889,-0.4911,-0.4892,-0.4909,-0.4905,-0.4907,-0.4906,-0.4905,-0.4929,-0.4891,-0.4831,-0.4825,-0.4905,-0.4905,-0.4906,0,-0.489,-0.488,-0.4862,-0.4862,-0.4868,-0.4859,-0.4862,-0.4864,-0.486,-0.4858,-0.4855,-0.4851,-0.4848,-0.4844,-0.4855,-0.487,-0.4835,-0.4858,-0.4839,-0.4838,-0.483,-0.483,-0.4767,-0.4828,-0.4828,-0.4828,-0.4828,0,-0.4842,-0.4825,-0.4842,-0.4832,-0.4813,-0.4828,-0.481,-0.4814,-0.4816,-0.4807,-0.4825,-0.4815,-0.4831,-0.4823,-0.4832,-0.4815,-0.4814,-0.4817,-0.482,-0.4815,-0.4815,-0.4813,-0.4816,-0.4826,-0.4827,-0.4827,-0.4827,0,-0.4788,-0.4799,-0.4782,-0.479,-0.4791,-0.4777,-0.4784,-0.4774,-0.4781,-0.4769,-0.4767,-0.4778,-0.477,-0.4781,-0.4774,-0.478,-0.4757,-0.4763,-0.4756,-0.4758,-0.4738,-0.4739,-0.4671,-0.4663,-0.4729,-0.4728,-0.4728,0,-0.4756,-0.4744,-0.475,-0.4745,-0.4746,-0.4738,-0.4735,-0.475,-0.4745,-0.4746,-0.4736,-0.473,-0.4725,-0.4711,-0.4718,-0.4713,-0.472,-0.4696,-0.4719,-0.4715,-0.4719,-0.4719,-0.4718,-0.4691,-0.469,-0.469,-0.4689,0,-0.4698,-0.4705,-0.4699,-0.4695,-0.4691,-0.4689,-0.4688,-0.4683,-0.4698,-0.4692,-0.4684,-0.4681,-0.4674,-0.4667,-0.4664,-0.4666,-0.468,-0.4682,-0.4677,-0.4672,-0.4668,-0.467,-0.4743,-0.4683,-0.4684,-0.4684,-0.4685,-0.4685,-0.4654,-0.4644,-0.4647,-0.464,-0.4642,-0.464,-0.4632,-0.4638,-0.4632,-0.4628,-0.4637,-0.4627,-0.4629,-0.4626,-0.4626,-0.4619,-0.4629,-0.4622,-0.462,-0.4618,-0.4615,-0.467,-0.4618,-0.4618,-0.4618,-0.4619,-0.4619,0,-0.4597,-0.46,-0.4594,-0.4592,-0.4587,-0.4602,-0.4601,-0.4596,-0.4587,-0.4588,-0.4583,-0.4574,-0.4568,-0.4575,-0.457,-0.4562,-0.4568,-0.456,-0.456,-0.4561,-0.4606,-0.461,-0.4555,-0.4555,-0.4555,-0.4555,-0.4555,-0.4555,-0.4566,-0.455,-0.4557,-0.4541,-0.4544,-0.4535,-0.4534,-0.4533,-0.4534,-0.4523,-0.4518,-0.4523,-0.4526,-0.4521,-0.4516,-0.4518,-0.4516,-0.4505,-0.4509,-0.4551,-0.4557,-0.4563,-0.4568,-0.4504,-0.4504,-0.4465,-0.4464,-0.4464]}]]